sat.trackr.live / text

‹ back to catalog

STARLINK-34166

NORAD 64158 · 2025-112N

PAYLOAD ACTIVE UNKNOWN

§ Identity

Operator
Country
US
Launch date
2025-05-27
Launch site
AFWTR
Launch vehicle
Mass (kg)
RCS (m²)

Purposes: comms

External: N2YO · Heavens-Above · Gunter

§ Orbital elements

Epoch: 2026-09-20T13:37:56.445024Z

Period
93.90 min
Inclination
97.2840°
Eccentricity
0.0000376
Mean motion
15.33470548 rev/d
Perigee alt
465.2 km
Apogee alt
465.7 km
Semi-major
6,843.6 km
B*
4.4724e-4
RAAN
310.5611°
Arg perigee
111.3546°
Mean anomaly
248.7737°
Rev number
7,275

§ Raw data

STARLINK-341661 64158U 25112N   26263.56801441  .00014403  00000+0  44724-3 0  99982 64158  97.2840 310.5611 0000376 111.3546 248.7737 15.33470548 72759

JSON: /api/v1/satellites/64158 · /tle

For live sub-satellite position, see the globe view (requires WebGL).

§ Visibility from observer

Set your observer location to see the next 7 days of passes ≥ 10°. The values pass through the URL so the page stays shareable.

No JS? Fill the form by hand. The geolocation button needs JavaScript.